TimeCST,TemperatureF,Dew PointF,Humidity,Sea Level PressureIn,VisibilityMPH,Wind Direction,Wind SpeedMPH,Gust SpeedMPH,PrecipitationIn,Events,Conditions,WindDirDegrees,DateUTC
12:14 AM,10.4,5.0,79,30.15,7.0,NW,9.2,-,N/A,Snow,Light Snow,310,2012-11-24 06:14:00
12:34 AM,10.4,5.0,79,30.15,10.0,NW,9.2,-,N/A,Snow,Light Snow,320,2012-11-24 06:34:00
12:53 AM,10.4,5.0,79,30.15,7.0,NW,9.2,-,N/A,Snow,Light Snow,310,2012-11-24 06:53:00
1:13 AM,10.4,5.0,79,30.15,10.0,NW,9.2,-,N/A,Snow,Light Snow,310,2012-11-24 07:13:00
1:34 AM,10.4,5.0,79,30.14,10.0,NW,8.1,-,N/A,Snow,Light Snow,320,2012-11-24 07:34:00
1:53 AM,10.4,5.0,79,30.14,10.0,NW,9.2,17.3,N/A,Snow,Light Snow,320,2012-11-24 07:53:00
2:34 AM,10.4,5.0,79,30.15,10.0,WNW,5.8,-,N/A,Snow,Light Snow,300,2012-11-24 08:34:00
2:53 AM,10.4,3.2,73,30.15,10.0,Calm,Calm,-,N/A,Snow,Light Snow,0,2012-11-24 08:53:00
3:14 AM,8.6,3.2,79,30.14,7.0,NNW,3.5,-,N/A,Snow,Light Snow,330,2012-11-24 09:14:00
3:33 AM,10.4,5.0,79,30.13,7.0,NNW,5.8,-,N/A,Snow,Light Snow,330,2012-11-24 09:33:00
3:54 AM,8.6,3.2,79,30.12,7.0,NNW,8.1,-,N/A,Snow,Light Snow,340,2012-11-24 09:54:00
4:13 AM,8.6,3.2,79,30.12,7.0,NNW,4.6,-,N/A,Snow,Light Snow,330,2012-11-24 10:13:00
4:34 AM,8.6,3.2,79,30.12,10.0,NW,6.9,-,N/A,,Clear,320,2012-11-24 10:34:00
4:54 AM,6.8,3.2,85,30.13,10.0,Calm,Calm,-,N/A,,Clear,0,2012-11-24 10:54:00
5:13 AM,6.8,3.2,85,30.13,10.0,Calm,Calm,-,N/A,,Clear,0,2012-11-24 11:13:00
5:33 AM,8.6,3.2,79,30.13,10.0,Calm,Calm,-,N/A,,Clear,0,2012-11-24 11:33:00
5:54 AM,6.8,1.4,79,30.13,10.0,Calm,Calm,-,N/A,,Scattered Clouds,0,2012-11-24 11:54:00
6:13 AM,3.2,-0.4,85,30.13,5.0,Calm,Calm,-,N/A,Snow,Light Snow,0,2012-11-24 12:13:00
6:34 AM,5.0,-0.4,78,30.13,7.0,Calm,Calm,-,N/A,Snow,Light Snow,0,2012-11-24 12:34:00
6:53 AM,6.8,1.4,79,30.13,7.0,NNW,3.5,-,N/A,Snow,Light Snow,330,2012-11-24 12:53:00
7:14 AM,6.8,1.4,79,30.12,7.0,North,4.6,-,N/A,Snow,Light Snow,350,2012-11-24 13:14:00
7:33 AM,8.6,3.2,79,30.12,7.0,North,5.8,-,N/A,Snow,Light Snow,360,2012-11-24 13:33:00
7:53 AM,8.6,3.2,79,30.12,10.0,NNW,4.6,-,N/A,Snow,Light Snow,330,2012-11-24 13:53:00
8:14 AM,8.6,3.2,79,30.11,10.0,North,5.8,-,N/A,Snow,Light Snow,350,2012-11-24 14:14:00
8:34 AM,10.4,3.2,73,30.11,10.0,North,3.5,-,N/A,Snow,Light Snow,350,2012-11-24 14:34:00
8:53 AM,10.4,3.2,73,30.11,5.0,Calm,Calm,-,N/A,Snow,Light Snow,0,2012-11-24 14:53:00
9:14 AM,10.4,3.2,73,30.10,7.0,Calm,Calm,-,N/A,Snow,Light Snow,0,2012-11-24 15:14:00
9:34 AM,10.4,3.2,73,30.10,10.0,Calm,Calm,-,N/A,Snow,Light Snow,0,2012-11-24 15:34:00
9:53 AM,10.4,3.2,73,30.09,2.5,Calm,Calm,-,N/A,Snow,Light Snow,0,2012-11-24 15:53:00
10:07 AM,12.2,3.2,67,30.09,7.0,Calm,Calm,-,N/A,Snow,Light Snow,0,2012-11-24 16:07:00
10:21 AM,12.2,3.2,67,30.09,7.0,SSW,1.2,-,N/A,,Mostly Cloudy,210,2012-11-24 16:21:00
10:56 AM,12.2,5.0,73,30.07,4.0,West,3.5,-,N/A,Snow,Light Snow,260,2012-11-24 16:56:00
11:13 AM,12.2,5.0,73,30.06,4.0,WSW,3.5,-,N/A,Snow,Light Snow,240,2012-11-24 17:13:00
11:33 AM,14.0,6.8,73,30.04,2.0,Calm,Calm,-,N/A,Snow,Light Snow,0,2012-11-24 17:33:00
11:53 AM,14.0,6.8,73,30.03,3.0,Calm,Calm,-,N/A,Snow,Light Snow,0,2012-11-24 17:53:00
12:13 PM,15.8,6.8,68,30.02,5.0,South,6.9,-,N/A,Snow,Light Snow,180,2012-11-24 18:13:00
12:34 PM,15.8,6.8,68,30.02,7.0,Calm,Calm,-,N/A,Snow,Light Snow,0,2012-11-24 18:34:00
12:54 PM,15.8,6.8,68,30.01,4.0,Calm,Calm,-,N/A,Snow,Light Snow,0,2012-11-24 18:54:00
1:14 PM,17.6,8.6,68,29.98,7.0,South,8.1,-,N/A,Snow,Light Snow,180,2012-11-24 19:14:00
1:33 PM,15.8,8.6,73,29.97,5.0,SE,6.9,-,N/A,Snow,Light Snow,140,2012-11-24 19:33:00
1:53 PM,15.8,8.6,73,29.97,10.0,SSW,6.9,-,N/A,Snow,Light Snow,200,2012-11-24 19:53:00
2:14 PM,15.8,8.6,73,29.96,7.0,South,8.1,-,N/A,Snow,Light Snow,180,2012-11-24 20:14:00
2:34 PM,15.8,8.6,73,29.95,7.0,SSW,4.6,-,N/A,Snow,Light Snow,200,2012-11-24 20:34:00
2:53 PM,15.8,8.6,73,29.95,7.0,SSW,4.6,-,N/A,Snow,Light Snow,200,2012-11-24 20:53:00
3:14 PM,15.8,8.6,73,29.94,10.0,SSW,5.8,-,N/A,Snow,Light Snow,200,2012-11-24 21:14:00
3:34 PM,15.8,8.6,73,29.93,10.0,South,3.5,-,N/A,Snow,Light Snow,180,2012-11-24 21:34:00
3:53 PM,15.8,8.6,73,29.91,10.0,South,3.5,-,N/A,Snow,Light Snow,180,2012-11-24 21:53:00
4:14 PM,15.8,10.4,79,29.91,10.0,South,3.5,-,N/A,Snow,Light Snow,190,2012-11-24 22:14:00
4:34 PM,15.8,10.4,79,29.90,10.0,South,3.5,-,N/A,,Overcast,180,2012-11-24 22:34:00
4:53 PM,15.8,10.4,79,29.89,10.0,Calm,Calm,-,N/A,,Overcast,0,2012-11-24 22:53:00
5:13 PM,15.8,10.4,79,29.87,10.0,Calm,Calm,-,N/A,,Overcast,0,2012-11-24 23:13:00
5:33 PM,15.8,12.2,86,29.86,10.0,SSE,3.5,-,N/A,,Overcast,150,2012-11-24 23:33:00
5:54 PM,15.8,12.2,86,29.84,10.0,Calm,Calm,-,N/A,,Overcast,0,2012-11-24 23:54:00
6:13 PM,17.6,12.2,79,29.84,10.0,SSE,3.5,-,N/A,,Overcast,160,2012-11-25 00:13:00
6:34 PM,17.6,14.0,86,29.83,1.8,SSE,4.6,-,N/A,Snow,Light Snow,160,2012-11-25 00:34:00
6:54 PM,17.6,14.0,86,29.82,2.0,SSE,4.6,-,N/A,Snow,Light Snow,160,2012-11-25 00:54:00
7:14 PM,19.4,15.8,86,29.81,1.0,SSE,6.9,-,N/A,Snow,Snow,160,2012-11-25 01:14:00
7:34 PM,17.6,14.0,86,29.80,0.8,South,10.4,-,N/A,Snow,Snow,180,2012-11-25 01:34:00
7:54 PM,17.6,14.0,86,29.80,1.0,South,6.9,16.1,N/A,Snow,Light Snow,170,2012-11-25 01:54:00
8:13 PM,17.6,14.0,86,29.79,1.0,South,6.9,-,N/A,Snow,Light Snow,170,2012-11-25 02:13:00
8:33 PM,17.6,14.0,86,29.78,1.5,South,5.8,-,N/A,Snow,Light Snow,170,2012-11-25 02:33:00
8:53 PM,19.4,15.8,86,29.77,1.5,South,5.8,-,0.01,Snow,Light Snow,180,2012-11-25 02:53:00
9:13 PM,19.4,15.8,86,29.76,1.2,South,6.9,-,N/A,Snow,Light Snow,190,2012-11-25 03:13:00
9:33 PM,19.4,15.8,86,29.76,1.2,South,9.2,-,0.01,Snow,Light Snow,180,2012-11-25 03:33:00
9:53 PM,19.4,15.8,86,29.74,1.2,SSE,3.5,-,0.02,Snow,Snow,160,2012-11-25 03:53:00
10:13 PM,19.4,15.8,86,29.73,1.0,Calm,Calm,-,0.01,Snow,Snow,0,2012-11-25 04:13:00
10:33 PM,19.4,15.8,86,29.73,0.8,SSW,4.6,-,0.03,Snow,Snow,200,2012-11-25 04:33:00
10:54 PM,19.4,15.8,86,29.73,1.2,SSW,6.9,-,0.03,Snow,Light Snow,210,2012-11-25 04:54:00
11:14 PM,19.4,15.8,86,29.72,1.2,SSW,5.8,-,0.01,Snow,Snow,200,2012-11-25 05:14:00
11:33 PM,19.4,15.8,86,29.71,1.8,SSW,3.5,-,0.02,Snow,Light Snow,210,2012-11-25 05:33:00
11:54 PM,19.4,15.8,86,29.70,5.0,SW,4.6,-,0.02,Snow,Light Snow,220,2012-11-25 05:54:00